Weather History for Canadian, TX

Change the Weather History Date:

Wednesday, November 21, 2012

  Actual Average (KPPA) Record (KPPA)
Temperature  
Mean Temperature 56 °F -  
Max Temperature 73 °F 56 °F 81 °F (1966)
Min Temperature 39 °F 29 °F 17 °F (1975)
Degree Days  
Heating Degree Days 9    
Growing Degree Days 6 (Base 50)    
Moisture  
Dew Point 40 °F    
Average Humidity 55    
Maximum Humidity 100    
Minimum Humidity 22    
Precipitation  
Precipitation 0.00 in - - ()
Sea Level Pressure  
Sea Level Pressure 30.10 in    
Wind  
Wind Speed 8 mph (SSW)    
Max Wind Speed 25 mph    
Max Gust Speed 32 mph    
Visibility 10 miles    
Events      
Averages and records for this station are not official NWS values.
T = Trace of Precipitation, MM = Missing Value Source: NWS Daily Summary

Daily Weather History Graph

Daily Weather History Graph

Search for Another Location

Airport:

Trip Planner

Search our weather history database for the weather conditions in past years. The results will help you decide how hot, cold, wet, or windy it might be!

Date:

Astronomy

Nov. 21, 2012 Rise Set
Actual Time 7:24 AM CST 5:30 PM CST
Civil Twilight 6:56 AM CST 5:58 PM CST
Nautical Twilight 6:25 AM CST 6:29 PM CST
Astronomical Twilight 5:54 AM CST 7:00 PM CST
Moon 1:37 PM CST (11/21) 12:57 AM CST (11/21)
Length of Visible Light 11h 01m
Length of Day
10h 06m
First Quarter, 62% of the Moon is Illuminated
Nov 21
First Quarter
Nov 28
Full
Dec 6
Last Quarter
Dec 13
New
Dec 19
First Quarter

Hourly Weather History & Observations

Time (CST) Temp. Windchill Dew Point Humidity Pressure Visibility Wind Dir Wind Speed Gust Speed Precip Events Conditions
12:15 AM 46.4 °F - 35.6 °F 66% 30.20 in 10.0 mi Calm Calm - N/A   Clear
12:35 AM 50.0 °F - 39.2 °F 66% 30.20 in 10.0 mi Calm Calm - N/A   Clear
12:55 AM 48.2 °F - 37.4 °F 66% 30.20 in 10.0 mi SSW 3.5 mph - N/A   Clear
1:15 AM 50.0 °F - 41.0 °F 71% 30.19 in 10.0 mi Calm Calm - N/A   Clear
1:35 AM 41.0 °F - 33.8 °F 76% 30.19 in 10.0 mi Calm Calm - N/A   Clear
1:55 AM 42.8 °F - 35.6 °F 76% 30.19 in 10.0 mi Calm Calm - N/A   Clear
2:15 AM 42.8 °F - 35.6 °F 76% 30.19 in 10.0 mi Calm Calm - N/A   Clear
2:35 AM 42.8 °F - 35.6 °F 76% 30.19 in 10.0 mi Calm Calm - N/A   Clear
2:55 AM 48.2 °F - 41.0 °F 76% 30.19 in 10.0 mi Calm Calm - N/A   Clear
3:15 AM 50.0 °F - 42.8 °F 76% 30.19 in 10.0 mi Calm Calm - N/A   Clear
3:35 AM 46.4 °F - 42.8 °F 87% 30.19 in 10.0 mi Calm Calm - N/A   Clear
3:55 AM 42.8 °F - 41.0 °F 93% 30.19 in 10.0 mi Calm Calm - N/A   Clear
4:15 AM 46.4 °F - 42.8 °F 87% 30.19 in 10.0 mi Calm Calm - N/A   Clear
4:35 AM 48.2 °F - 44.6 °F 87% 30.19 in 10.0 mi Calm Calm - N/A   Clear
4:55 AM 46.4 °F - 42.8 °F 87% 30.19 in 10.0 mi Calm Calm - N/A   Clear
5:15 AM 46.4 °F 44.3 °F 42.8 °F 87% 30.19 in 10.0 mi WSW 4.6 mph - N/A   Clear
5:35 AM 44.6 °F - 42.8 °F 93% 30.19 in 10.0 mi Calm Calm - N/A   Clear
5:55 AM 41.0 °F 36.4 °F 39.2 °F 93% 30.18 in 10.0 mi SW 6.9 mph - N/A   Clear
6:15 AM 41.0 °F 37.1 °F 37.4 °F 87% 30.18 in 10.0 mi SW 5.8 mph - N/A   Clear
6:35 AM 41.0 °F 35.8 °F 37.4 °F 87% 30.19 in 10.0 mi WSW 8.1 mph - N/A   Clear
6:55 AM 39.2 °F - 37.4 °F 93% 30.19 in 10.0 mi Calm Calm - N/A   Clear
7:15 AM 41.0 °F - 41.0 °F 100% 30.19 in 10.0 mi Calm Calm - N/A   Clear
7:35 AM 41.0 °F - 41.0 °F 100% 30.19 in 7.0 mi Calm Calm - N/A   Clear
7:55 AM 39.2 °F - 37.4 °F 93% 30.19 in 5.0 mi Calm Calm - N/A   Clear
8:15 AM 39.2 °F - 37.4 °F 93% 30.19 in 5.0 mi Calm Calm - N/A   Clear
8:35 AM 42.8 °F - 41.0 °F 93% 30.19 in 7.0 mi Calm Calm - N/A   Clear
8:55 AM 46.4 °F 43.5 °F 42.8 °F 87% 30.20 in 10.0 mi NE 5.8 mph - N/A   Clear
9:15 AM 50.0 °F - 42.8 °F 76% 30.20 in 10.0 mi Calm Calm - N/A   Clear
9:35 AM 55.4 °F - 41.0 °F 58% 30.19 in 10.0 mi Calm Calm - N/A   Clear
9:55 AM 62.6 °F - 37.4 °F 39% 30.19 in 10.0 mi SSW 18.4 mph 23.0 mph N/A   Clear
10:15 AM 64.4 °F - 35.6 °F 34% 30.18 in 10.0 mi SSW 18.4 mph 25.3 mph N/A   Clear
10:35 AM 64.4 °F - 33.8 °F 32% 30.18 in 10.0 mi SSW 17.3 mph 21.9 mph N/A   Clear
10:55 AM 68.0 °F - 33.8 °F 28% 30.17 in 10.0 mi SSW 19.6 mph 25.3 mph N/A   Clear
11:15 AM 69.8 °F - 33.8 °F 27% 30.16 in 10.0 mi SSW 16.1 mph 19.6 mph N/A   Clear
11:35 AM 69.8 °F - 33.8 °F 27% 30.15 in 10.0 mi South 19.6 mph 24.2 mph N/A   Clear
11:55 AM 71.6 °F - 33.8 °F 25% 30.14 in 10.0 mi SSW 19.6 mph 25.3 mph N/A   Clear
12:15 PM 71.6 °F - 32.0 °F 23% 30.12 in 10.0 mi SSW 21.9 mph 27.6 mph N/A   Clear
12:35 PM 73.4 °F - 32.0 °F 22% 30.11 in 10.0 mi SSW 18.4 mph 26.5 mph N/A   Clear
12:55 PM 73.4 °F - 32.0 °F 22% 30.10 in 10.0 mi SW 21.9 mph 29.9 mph N/A   Clear
1:15 PM 73.4 °F - 32.0 °F 22% 30.09 in 10.0 mi SSW 25.3 mph - N/A   Clear
1:35 PM 73.4 °F - 32.0 °F 22% 30.07 in 10.0 mi SSW 24.2 mph 28.8 mph N/A   Clear
1:55 PM 73.4 °F - 32.0 °F 22% 30.06 in 10.0 mi SSW 23.0 mph 29.9 mph N/A   Clear
2:15 PM 73.4 °F - 33.8 °F 23% 30.05 in 10.0 mi SSW 21.9 mph 28.8 mph N/A   Clear
2:35 PM 73.4 °F - 35.6 °F 25% 30.05 in 10.0 mi SSW 20.7 mph 27.6 mph N/A   Clear
2:55 PM 73.4 °F - 35.6 °F 25% 30.04 in 10.0 mi SSW 20.7 mph 25.3 mph N/A   Clear
3:15 PM 71.6 °F - 35.6 °F 27% 30.04 in 10.0 mi SSW 11.5 mph 15.0 mph N/A   Clear
3:35 PM 73.4 °F - 37.4 °F 27% 30.03 in 10.0 mi SSW 18.4 mph 25.3 mph N/A   Clear
3:55 PM 69.8 °F - 37.4 °F 31% 30.03 in 10.0 mi South 16.1 mph 23.0 mph N/A   Clear
4:15 PM 69.8 °F - 37.4 °F 31% 30.02 in 10.0 mi South 12.7 mph 20.7 mph N/A   Clear
4:35 PM 69.8 °F - 39.2 °F 33% 30.02 in 10.0 mi South 18.4 mph 21.9 mph N/A   Clear
4:55 PM 69.8 °F - 39.2 °F 33% 30.01 in 10.0 mi South 17.3 mph 25.3 mph N/A   Clear
5:15 PM 69.8 °F - 39.2 °F 33% 30.00 in 10.0 mi South 15.0 mph - N/A   Clear
5:35 PM 68.0 °F - 41.0 °F 37% 30.00 in 10.0 mi South 15.0 mph 19.6 mph N/A   Clear
5:55 PM 68.0 °F - 42.8 °F 40% 30.00 in 10.0 mi South 15.0 mph 19.6 mph N/A   Clear
6:15 PM 68.0 °F - 44.6 °F 43% 30.00 in 10.0 mi South 13.8 mph - N/A   Clear
6:35 PM 69.8 °F - 46.4 °F 43% 30.00 in 10.0 mi South 19.6 mph 26.5 mph N/A   Clear
6:55 PM 68.0 °F - 46.4 °F 46% 30.00 in 10.0 mi South 19.6 mph 28.8 mph N/A   Clear
7:15 PM 68.0 °F - 46.4 °F 46% 30.00 in 10.0 mi South 19.6 mph 32.2 mph N/A   Clear
7:35 PM 68.0 °F - 46.4 °F 46% 30.01 in 10.0 mi SSW 18.4 mph 24.2 mph N/A   Clear
7:55 PM 68.0 °F - 46.4 °F 46% 30.00 in 10.0 mi SSW 19.6 mph 29.9 mph N/A   Clear
8:15 PM 68.0 °F - 46.4 °F 46% 30.00 in 10.0 mi South 20.7 mph 25.3 mph N/A   Clear
8:35 PM 68.0 °F - 46.4 °F 46% 29.99 in 10.0 mi South 21.9 mph 28.8 mph N/A   Clear
8:55 PM 68.0 °F - 46.4 °F 46% 29.99 in 10.0 mi South 20.7 mph 27.6 mph N/A   Clear
9:15 PM 64.4 °F - 44.6 °F 49% 29.99 in 10.0 mi South 20.7 mph 27.6 mph N/A   Clear
9:35 PM 64.4 °F - 44.6 °F 49% 29.98 in 10.0 mi South 23.0 mph 28.8 mph N/A   Clear
9:55 PM 64.4 °F - 46.4 °F 52% 29.98 in 10.0 mi South 21.9 mph 31.1 mph N/A   Clear
10:15 PM 62.6 °F - 44.6 °F 52% 29.97 in 10.0 mi South 24.2 mph 28.8 mph N/A   Clear
10:35 PM 62.6 °F - 44.6 °F 52% 29.96 in 10.0 mi South 24.2 mph 28.8 mph N/A   Clear
10:55 PM 62.6 °F - 44.6 °F 52% 29.95 in 10.0 mi South 24.2 mph 32.2 mph N/A   Clear
11:15 PM 62.6 °F - 44.6 °F 52% 29.95 in 10.0 mi SSW 20.7 mph 28.8 mph N/A   Clear
11:35 PM 62.6 °F - 46.4 °F 55% 29.95 in 10.0 mi SSW 21.9 mph 26.5 mph N/A   Clear
11:55 PM 62.6 °F - 46.4 °F 55% 29.95 in 10.0 mi SSW 20.7 mph 27.6 mph N/A   Clear